星链-4762 (STARLINK-4762 )

导读

STARLINK-4762是美国SpaceX公司星链星座的一员,于北京时间2022年9月19日发射升空,属于星链计划第二批组网卫星,部署于近地轨道。星链星座旨在构建全球覆盖的高速卫星互联网,为偏远地区、海洋和航空场景提供宽带接入服务。作为SpaceX大规模星座组网的重要组成部分,该卫星进一步拓展了星链的全球覆盖范围,提升了星座整体服务的稳定性与容量,助力SpaceX实现全球卫星互联网的部署目标。

基本信息
目录编号:
53866
目录名称:
STARLINK-4762
国际标识:
2022-114BA
轨道中心:
EARTH
卫星名称:
星链-4762
卫星全名:
星链-4762 (STARLINK-4762 )
卫星状态:
在轨 (已飞行1446 天)
发射日期:
2022-09-19 UTC
国别 :
美国 (US)
星等 :
--
轨道信息
数据来源 国际轨道数据
星历时间: 2026-09-03T20:41:40+0800
1天前
查看轨道信息
半长轴: 6840.893km
偏心率: 0.0001385
轨道倾角: 53.160°
近地点辐角 97.878°
升交点赤经 173.027°
平近点角 262.238°
近地点: 461.808km
远地点: 463.704km
周期: 93.849分钟
每日圈数: 15.343825
详细信息
固有亮度:
5
最大亮度:
2.5
卫星平台:
Starlink v1.5
覆盖范围:
全球
运营商:
太空探索技术公司
运营商所在国:
美国
制造商(研发单位):
太空探索技术公司
制造商所在国:
美国
使用方式:
暂无
卫星简介
星链(Starlink)计划是由太空探索技术公司(SpaceX)提出的一个巨型低轨卫星互联网星座项目,计划在2019年至2024年间在太空搭建由约1.2万颗卫星组成的“星链”网络,其中1584颗将部署在地球上空550千米处的近地轨道,并从2020年开始工作。该卫星仍在工作。
2D轨道图
3D轨道图
轨道高度分析图
轨道倾角分析图
轨道综合分析图
查看轨道综合分析图
交会数据列表
事件ID 空间交会对象 最接近时刻(TCA) 交会距离 交会风险概率(CRP) 交会风险指数(CRI) 操作
CDM_260906-213505-386606-625521
2026-09-06T
21:35:54+0000
0.420 km
远距离
5.728326E-5 中风险 0.7
CDM_260906-222205-386606-625521
2026-09-06T
22:22:48+0000
0.904 km
远距离
5.039498E-6 低风险 0.49
CDM_260904-131305-326305-386621
2026-09-04T
13:13:08+0000
1.404 km
极远距离
4.942847E-6 低风险 0.49
CDM_260905-215605-386605-866121
2026-09-05T
21:56:27+0000
2.324 km
极远距离
1.993274E-6 低风险 0.41
CDM_260901-204805-386605-703824
2026-09-01T
20:48:40+0000
2.788 km
极远距离
1.472089E-6 低风险 0.38
CDM_260906-204905-386606-625521
2026-09-06T
20:49:01+0000
1.587 km
极远距离
8.701869E-7 极低风险 0.34
CDM_260906-230905-386606-625521
2026-09-06T
23:09:42+0000
1.961 km
极远距离
5.287071E-7 极低风险 0.29
CDM_260906-200205-386606-625521
2026-09-06T
20:02:07+0000
2.733 km
极远距离
3.133262E-7 极低风险 0.25